• In Netherlands
  • List of Countries
  • For 7 days
  • Water Temperature
  • Satellite Maps
  • Weather Map
  • Weather Widgets
  • user-avatar
    Login

    Hourly Weather Mendoza

    Today, 24 September, Monday

    Time Temperature Precipitation Wind Pressure Humidity
    00:00 +18°C° 0 mm 4 mps 697 mmHg 40%
    01:00 +17°C° 0 mm 4 mps 697 mmHg 44%
    02:00 +17°C° 0 mm 4 mps 697 mmHg 47%
    03:00 +15°C° 0 mm 4 mps 697 mmHg 50%
    04:00 +14°C° 0 mm 5 mps 697 mmHg 52%
    05:00 +14°C° 0 mm 5 mps 697 mmHg 51%
    06:00 +14°C° 0 mm 5 mps 697 mmHg 50%
    07:00 +14°C° 0 mm 5 mps 698 mmHg 49%
    08:00 +16°C° 0 mm 5 mps 698 mmHg 45%
    09:00 +19°C° 0 mm 5 mps 698 mmHg 41%
    10:00 +21°C° 0 mm 5 mps 698 mmHg 36%
    11:00 +21°C° 0 mm 4 mps 697 mmHg 34%
    12:00 +22°C° 0 mm 4 mps 697 mmHg 32%
    13:00 +23°C° 0 mm 4 mps 696 mmHg 30%
    14:00 +24°C° 0 mm 3 mps 696 mmHg 29%
    15:00 +24°C° 0 mm 3 mps 696 mmHg 29%
    16:00 +24°C° 0 mm 3 mps 696 mmHg 28%
    17:00 +24°C° 0 mm 2 mps 696 mmHg 30%
    18:00 +23°C° 0 mm 2 mps 697 mmHg 32%
    19:00 +21°C° 0 mm 2 mps 697 mmHg 33%
    20:00 +21°C° 0 mm 2 mps 697 mmHg 34%
    21:00 +20°C° 0 mm 2 mps 697 mmHg 36%
    22:00 +19°C° 0 mm 2 mps 697 mmHg 37%
    23:00 +19°C° 0 mm 2 mps 697 mmHg 37%

    Tomorrow, 25 September, Tuesday

    Time Temperature Precipitation Wind Pressure Humidity
    00:00 +18°C° 0 mm 2 mps 696 mmHg 38%
    01:00 +18°C° 0 mm 2 mps 696 mmHg 39%
    02:00 +17°C° 0 mm 2 mps 696 mmHg 40%
    03:00 +17°C° 0 mm 2 mps 695 mmHg 40%
    04:00 +16°C° 0 mm 3 mps 695 mmHg 41%
    05:00 +17°C° 0 mm 3 mps 696 mmHg 39%
    06:00 +18°C° 0 mm 3 mps 696 mmHg 37%
    07:00 +19°C° 0 mm 3 mps 696 mmHg 35%
    08:00 +20°C° 0 mm 3 mps 696 mmHg 33%
    09:00 +22°C° 0 mm 3 mps 696 mmHg 30%
    10:00 +23°C° 0 mm 4 mps 697 mmHg 28%
    11:00 +25°C° 0 mm 3 mps 696 mmHg 27%
    12:00 +26°C° 0 mm 3 mps 696 mmHg 25%
    13:00 +27°C° 0 mm 3 mps 695 mmHg 24%
    14:00 +27°C° 0 mm 3 mps 695 mmHg 24%
    15:00 +27°C° 0 mm 4 mps 695 mmHg 23%
    16:00 +27°C° 0 mm 4 mps 695 mmHg 23%
    17:00 +26°C° 0 mm 5 mps 695 mmHg 27%
    18:00 +23°C° 0 mm 5 mps 696 mmHg 31%
    19:00 +22°C° 0 mm 6 mps 696 mmHg 36%
    20:00 +21°C° 0 mm 6 mps 696 mmHg 38%
    21:00 +20°C° 0 mm 6 mps 697 mmHg 41%
    22:00 +18°C° 0 mm 7 mps 697 mmHg 43%
    23:00 +17°C° 0 mm 6 mps 696 mmHg 45%

    Day after tomorrow, 26 September, Wednesday

    Time Temperature Precipitation Wind Pressure Humidity
    00:00 +17°C° 0 mm 6 mps 696 mmHg 47%
    01:00 +16°C° 0 mm 6 mps 696 mmHg 49%
    02:00 +16°C° 0 mm 5 mps 696 mmHg 50%
    03:00 +15°C° 0 mm 5 mps 695 mmHg 52%
    04:00 +15°C° 0 mm 5 mps 695 mmHg 54%
    05:00 +15°C° 0 mm 5 mps 696 mmHg 53%
    06:00 +15°C° 0 mm 5 mps 696 mmHg 52%
    07:00 +16°C° 0 mm 5 mps 696 mmHg 50%
    08:00 +17°C° 0 mm 5 mps 696 mmHg 47%
    09:00 +19°C° 0 mm 5 mps 696 mmHg 44%
    10:00 +21°C° 0 mm 5 mps 696 mmHg 40%
    11:00 +22°C° 0 mm 5 mps 696 mmHg 38%
    12:00 +22°C° 0 mm 4 mps 695 mmHg 36%
    13:00 +23°C° 0 mm 4 mps 695 mmHg 34%
    14:00 +23°C° 0 mm 4 mps 694 mmHg 35%
    15:00 +25°C° 0 mm 4 mps 694 mmHg 35%
    16:00 +25°C° 0 mm 3 mps 694 mmHg 35%
    17:00 +24°C° 0 mm 3 mps 694 mmHg 38%
    18:00 +22°C° 0 mm 3 mps 695 mmHg 42%
    19:00 +21°C° 0 mm 3 mps 695 mmHg 45%
    20:00 +21°C° 0 mm 4 mps 695 mmHg 49%
    21:00 +20°C° 0 mm 4 mps 695 mmHg 52%
    22:00 +19°C° 0 mm 5 mps 695 mmHg 56%
    23:00 +19°C° 0 mm 5 mps 695 mmHg 57%

    27 September, Thursday

    Time Temperature Precipitation Wind Pressure Humidity
    00:00 +17°C° 0 mm 5 mps 694 mmHg 58%
    01:00 +17°C° 0 mm 4 mps 694 mmHg 59%
    02:00 +17°C° 0 mm 4 mps 694 mmHg 61%
    03:00 +15°C° 0 mm 4 mps 693 mmHg 63%
    04:00 +15°C° 0 mm 4 mps 693 mmHg 65%
    05:00 +15°C° 0 mm 4 mps 694 mmHg 63%
    06:00 +17°C° 0 mm 4 mps 694 mmHg 62%
    07:00 +17°C° 0 mm 4 mps 694 mmHg 60%
    08:00 +18°C° 0 mm 4 mps 694 mmHg 56%
    09:00 +20°C° 0 mm 4 mps 694 mmHg 52%
    10:00 +21°C° 0 mm 4 mps 694 mmHg 47%
    11:00 +22°C° 0 mm 4 mps 694 mmHg 45%
    12:00 +23°C° 0 mm 4 mps 694 mmHg 42%
    13:00 +25°C° 0 mm 3 mps 693 mmHg 39%
    14:00 +25°C° 0 mm 3 mps 693 mmHg 38%
    15:00 +25°C° 0 mm 3 mps 693 mmHg 38%
    16:00 +25°C° 0 mm 3 mps 693 mmHg 37%
    17:00 +25°C° 0 mm 3 mps 694 mmHg 40%
    18:00 +24°C° 0 mm 3 mps 694 mmHg 43%
    19:00 +22°C° 0 mm 3 mps 694 mmHg 45%
    20:00 +21°C° 0 mm 3 mps 694 mmHg 49%
    21:00 +20°C° 0 mm 4 mps 694 mmHg 52%
    22:00 +20°C° 0 mm 4 mps 694 mmHg 56%
    23:00 +19°C° 0 mm 4 mps 694 mmHg 57%

    28 September, Friday

    Time Temperature Precipitation Wind Pressure Humidity
    00:00 +18°C° 0 mm 3 mps 694 mmHg 59%
    01:00 +18°C° 0 mm 3 mps 693 mmHg 60%
    02:00 +17°C° 0 mm 3 mps 693 mmHg 61%
    03:00 +17°C° 0 mm 3 mps 693 mmHg 62%
    04:00 +17°C° 0 mm 3 mps 693 mmHg 63%
    05:00 +18°C° 0 mm 3 mps 693 mmHg 60%
    06:00 +18°C° 0 mm 3 mps 693 mmHg 58%
    07:00 +19°C° 0 mm 3 mps 694 mmHg 55%
    08:00 +21°C° 0 mm 4 mps 693 mmHg 47%
    09:00 +23°C° 0 mm 5 mps 693 mmHg 39%
    10:00 +26°C° 0 mm 5 mps 693 mmHg 31%
    11:00 +28°C° 0 mm 6 mps 693 mmHg 27%
    12:00 +30°C° 0 mm 6 mps 692 mmHg 22%
    13:00 +32°C° 0 mm 6 mps 692 mmHg 17%
    14:00 +33°C° 0 mm 7 mps 691 mmHg 15%
    15:00 +33°C° 0 mm 7 mps 691 mmHg 14%
    16:00 +33°C° 0 mm 7 mps 691 mmHg 13%
    17:00 +30°C° 0 mm 7 mps 691 mmHg 14%
    18:00 +29°C° 0 mm 6 mps 691 mmHg 14%
    19:00 +27°C° 0 mm 6 mps 691 mmHg 15%
    20:00 +26°C° 0 mm 7 mps 691 mmHg 16%
    21:00 +24°C° 0 mm 8 mps 691 mmHg 17%
    22:00 +24°C° 0 mm 9 mps 691 mmHg 17%
    23:00 +23°C° 0 mm 9 mps 690 mmHg 18%

    29 September, Saturday

    Time Temperature Precipitation Wind Pressure Humidity
    00:00 +23°C° 0 mm 8 mps 690 mmHg 19%
    01:00 +22°C° 0 mm 8 mps 690 mmHg 20%
    02:00 +22°C° 0 mm 7 mps 689 mmHg 21%
    03:00 +21°C° 0 mm 7 mps 689 mmHg 22%
    04:00 +21°C° 0 mm 6 mps 689 mmHg 23%
    05:00 +21°C° 0 mm 7 mps 689 mmHg 23%
    06:00 +22°C° 0 mm 7 mps 689 mmHg 22%
    07:00 +23°C° 0 mm 8 mps 689 mmHg 22%
    08:00 +24°C° 0 mm 9 mps 689 mmHg 20%
    09:00 +26°C° 0 mm 10 mps 689 mmHg 18%
    10:00 +28°C° 0 mm 11 mps 689 mmHg 16%
    11:00 +28°C° 0 mm 12 mps 689 mmHg 15%
    12:00 +28°C° 0 mm 12 mps 688 mmHg 15%
    13:00 +28°C° 0 mm 12 mps 688 mmHg 14%
    14:00 +27°C° 0 mm 12 mps 688 mmHg 15%
    15:00 +26°C° 0 mm 11 mps 688 mmHg 16%
    16:00 +26°C° 0 mm 10 mps 688 mmHg 17%
    17:00 +23°C° 0 mm 9 mps 689 mmHg 17%
    18:00 +22°C° 0 mm 9 mps 690 mmHg 18%
    19:00 +21°C° 0 mm 8 mps 690 mmHg 19%
    20:00 +20°C° 0 mm 7 mps 691 mmHg 19%
    21:00 +20°C° 0 mm 6 mps 691 mmHg 20%
    22:00 +19°C° 0 mm 6 mps 692 mmHg 21%
    23:00 +17°C° 0.1 mm 6 mps 692 mmHg 27%
    Show more

    3.3.7123123